Regional Weather Roundup
Issued by NWS

Home | Current Version | Previous Version | Graphics & Text | Print | Product List | Glossary On
Versions: 1 2 3 4 5 6 7 8 9 10 11 12 13 14 15 16 17 18 19 20 21 22 23 24 25 26 27 28 29 30 31 32 33 34 35 36 37 38 39 40 41 42 43 44 45 46 47 48 49 50
000
ASUS43 KLMK 212010
RWRKY
KENTUCKY REGIONAL WEATHER ROUNDUP
NATIONAL WEATHER SERVICE LOUISVILLE KY
400 PM EDT TUE OCT 21 2014

NOTE "FAIR" INDICATES FEW OR NO CLOUDS BELOW 12,000 FEET
WITH NO SIGNIFICANT WEATHER AND/OR OBSTRUCTIONS TO VISIBILITY.

KYZ001>023-026-027-061>063-070>075-212100-
WESTERN AND SOUTH CENTRAL KENTUCKY

CITY           SKY/WX    TMP DP  RH WIND       PRES   REMARKS
PADUCAH        SUNNY     71  47  42 N7        30.06S
HENDERSON      MOSUNNY  N/A N/A N/A N9        30.07S
OWENSBORO      PTSUNNY   65  45  48 N13       30.08R
HOPKINSVILLE   SUNNY     69  45  41 NW13G20   30.04S
BOWLING GREEN  MOSUNNY   68  44  42 N7        30.05R
GLASGOW        MOSUNNY   63  42  47 N9        30.05R
$$

KYZ024-025-028>034-038-045-046-053-212100-
NORTH CENTRAL KENTUCKY

CITY           SKY/WX    TMP DP  RH WIND       PRES   REMARKS
LOUISVILLE/SDF LGT RAIN  60  43  53 N13G24    30.07R
LOUISVILLE/LOU CLOUDY    59  43  55 N8G16     30.08R
FORT KNOX      PTSUNNY   59  41  51 NW8       30.05S
$$

KYZ035>037-039>044-047>052-055>060-089>105-212100-
NORTHEAST KENTUCKY

CITY           SKY/WX    TMP DP  RH WIND       PRES   REMARKS
LEXINGTON      CLOUDY    57  40  52 NW10      30.06R
COVINGTON      CLOUDY    53  39  59 N10       30.06R
FRANKFORT      CLOUDY    56  40  55 NW9       30.06R
$$

KYZ054-064>069-076>088-106>120-212100-
SOUTHEAST KENTUCKY

CITY           SKY/WX    TMP DP  RH WIND       PRES   REMARKS
JACKSON        CLOUDY    53  38  56 NW8       30.03R
LONDON         CLOUDY    58  41  53 N14G20    30.04R
SOMERSET       CLOUDY    59  41  51 NW10G17   30.06R
MIDDLESBORO    MOSUNNY   62  42  48 W12       30.01R
MONTICELLO     MOCLDY    65  45  48 NW10G92   30.05S SQUALL
$$




USA.gov is the U.S. government's official web portal to all federal, state and local government web resources and services.